Location: Glencliff
(36.1226°N, 86.7183°W)
Time: 12:40:45
(UTC+00:00)

Cosmos 1674 Rocket - Pass Details

Date: 25 August 2019
Orbit: 603 x 630 km, 82.5° (Epoch: 22 October)

Event Time Altitude Azimuth Distance (km) Brightness Sun altitude
Rises 01:33:31 0° 2° (N) 2,874 7.3 -13.7°
Reaches altitude 10° 01:35:54 10° 11° (N) 1,962 6.3 -14.2°
Maximum altitude 01:39:55 36° 79° (E) 960 4.1 -14.9°
Enters shadow 01:41:34 26° 123° (ESE) 1,189 4.4 -15.2°
